Location: Central Falls
(41.8900°N, 71.3929°W)
Time: 14:55:24
(UTC+00:00)

Vanguard 1 - Pass Details

Date: 06 December 2023
Orbit: 653 x 3826 km, 34.3° (Epoch: 24 February)

Event Time Altitude Azimuth Distance (km) Brightness Sun altitude
Rises 01:52:40 0° 271° (W) 6,693 14.9 -50.8°
Reaches altitude 10° 01:56:34 10° 269° (W) 5,993 14.5 -51.5°
Enters shadow 02:14:43 64° 217° (SW) 4,038 12.8 -54.7°
Maximum altitude 02:17:03 66° 193° (SSW) 4,028 - -55.1°
Drops below altitude 10° 02:39:11 10° 118° (ESE) 6,391 - -58.8°
Sets 02:43:33 0° 115° (ESE) 7,133 - -59.5°
